CAPE
577 786 799 945 833 330 98 603 561 323 66 50 172 199 66 61 285 34 13 11 5 314 724 856 374 210 68 38 408 477 265 484 277 102 162 285 359 382 243 691 302 282 240
449 706 698 761 674 265 0 441 250 113 0 0 64 147 122 116 423 202 1 445 56 346 551 523 960 574 489 247 96 198 419 655 861 630 457 481 217 352 526 367 815 519 638
426 517 583 604 755 483 46 52 420 349 204 57 49 42 107 69 98 270 202 231 295 268 260 372 262 609 648 759 711 319 100 210 569 942 569 406 301 175 113 213 742 625 414
619 344 507 540 778 771 563 87 68 230 357 407 260 123 118 47 0 30 174 359 371 341 456 470 395 418 336 546 787 777 478 197 140 216 397 425 308 211 128 145 214 364 383
625 455 256 372 595 600 638 712 649 501 292 381 308 292 215 123 28 29 0 70 391 506 444 346 391 394 402 487 521 725 634 378 331 337 326 431 441 376 283 192 149 128 65
695 630 484 320 493 506 515 603 756 665 551 459 363 434 452 400 239 64 29 14 71 310 485 438 475 488 618 696 640 302 230 446 484 452 430 463 421 355 258 149 112 102 78
658 662 711 571 699 757 721 695 674 590 595 442 290 193 152 186 397 554 356 220 137 123 247 297 576 617 550 692 681 607 384 346 379 314 224 243 362 306 300 243 194 100 66
531 456 539 549 670 805 723 693 606 474 464 539 344 182 155 87 109 264 592 611 400 388 353 356 452 625 608 659 761 695 644 631 529 433 351 293 360 463 702 639 550 613 329
651 468 368 353 488 603 719 758 710 539 387 402 568 181 105 38 51 47 74 240 366 401 417 362 475 676 692 688 744 770 856 886 861 693 543 527 673 536 251 256 284 252 338
743 759 564 474 489 562 539 603 686 590 492 408 439 480 156 128 94 49 130 284 364 307 307 471 333 228 262 779 965 867 880 1090 962 762 640 587 541 203 58 28 48 111 173
722 692 597 511 485 654 636 554 553 657 680 553 289 232 297 216 209 258 105 92 107 152 263 269 108 8 7 115 1035 996 913 1104 922 849 544 496 112 7 0 0 22 78 162
638 605 605 531 391 457 618 714 828 798 699 539 240 129 80 93 78 65 57 94 68 51 76 154 160 136 35 217 644 982 983 766 711 499 237 74 0 0 0 0 4 48 225
744 715 641 601 546 503 525 499 551 603 465 387 310 198 271 240 244 194 98 72 72 56 38 85 147 113 111 353 546 792 773 602 333 205 65 2 1 0 0 0 0 25 139
738 861 845 811 691 609 555 513 478 476 513 390 388 417 299 353 383 324 292 148 84 83 31 4 48 116 179 237 248 392 497 333 176 52 1 0 0 0 0 0 0 0 72
882 820 1012 907 843 731 609 505 460 472 574 547 540 401 451 548 475 403 313 203 129 98 21 7 23 32 29 51 90 27 138 209 98 27 0 0 0 0 0 0 0 3 22
912 918 886 916 876 719 759 586 597 614 582 492 516 541 510 557 540 476 313 217 149 151 78 0 5 9 38 91 79 108 126 147 61 19 0 0 0 0 0 0 0 16 16
866 972 969 924 886 747 823 670 624 564 485 537 590 563 572 511 412 295 227 143 84 70 58 15 13 27 54 75 82 83 56 35 3 0 0 0 0 0 0 0 1 6 24
499 849 949 678 849 912 798 777 499 635 591 381 445 620 505 617 452 288 256 153 67 30 31 22 20 21 99 72 46 15 1 0 0 0 0 0 0 0 0 0 10 18 21
316 277 294 568 768 639 835 577 675 666 575 488 553 504 330 500 587 409 294 233 129 58 18 13 26 67 81 49 14 4 0 2 0 0 0 0 0 0 0 0 1 7 8
14 0 118 322 681 639 552 817 689 553 510 494 531 536 438 436 484 392 346 248 169 127 116 90 64 56 57 14 11 0 0 0 0 0 0 0 0 0 0 0 0 4 3
0 0 23 254 597 611 560 800 661 548 367 398 570 592 550 467 422 342 278 240 161 136 95 67 38 34 21 0 0 0 1 0 0 1 0 0 0 0 0 0 0 0 0
0 0 7 141 407 633 615 610 766 681 484 450 524 575 577 586 489 331 270 308 173 92 47 14 0 30 0 0 0 0 0 0 1 0 0 0 0 0 0 0 0 0 0
1 25 49 85 438 504 466 378 435 681 753 622 566 514 509 524 418 412 366 329 267 113 74 38 6 5 15 25 0 0 0 0 0 0 0 0 0 0 0 0 0 0 0
2 54 115 146 264 305 252 278 239 388 791 744 734 636 557 554 499 469 330 139 186 167 102 109 58 17 28 1 0 0 0 0 0 0 0 1 0 0 0 0 0 0 0
8 44 165 215 141 129 234 226 148 214 307 497 578 553 659 564 626 489 331 153 157 121 56 42 51 19 12 13 0 0 0 0 0 0 0 1 0 0 0 1 0 0 0
27 24 116 123 175 137 181 149 78 78 122 212 367 457 317 343 377 267 138 263 244 206 98 45 2 0 0 0 0 8 0 0 0 0 0 1 0 0 1 0 0 0 0
CIN
-98 -55 -29 -16 -23 -78 -133 -57 -52 -78 -110 -97 -93 -74 -69 -42 -45 -76 -94 -86 -101 -67 -36 -49 -78 -94 -135 -164 -62 -40 -60 -25 -51 -107 -63 -28 -9 -4 -8 -1 -3 -8 -5
-117 -77 -56 -34 -41 -107 -0 -72 -96 -122 -0 -0 -91 -73 -54 -29 -24 -53 -24 -68 -74 -65 -46 -44 -51 -72 -75 -103 -135 -104 -59 -25 -3 -5 -27 -11 -37 -32 -12 -17 -0 -1 -1
-116 -95 -74 -62 -38 -70 -138 -128 -65 -81 -93 -105 -84 -74 -56 -41 -26 -34 -53 -54 -56 -58 -58 -48 -56 -61 -64 -56 -45 -85 -132 -90 -32 -2 -27 -21 -42 -59 -75 -39 -1 -1 -2
-74 -115 -70 -66 -45 -39 -47 -125 -113 -71 -55 -48 -59 -68 -62 -50 -0 -45 -36 -46 -58 -61 -64 -50 -46 -53 -53 -54 -42 -38 -59 -87 -88 -69 -43 -32 -35 -44 -53 -38 -25 -2 -5
-67 -89 -115 -80 -51 -46 -38 -39 -37 -48 -58 -49 -47 -37 -33 -34 -46 -69 -0 -44 -46 -51 -60 -54 -42 -39 -41 -49 -54 -39 -43 -54 -58 -58 -51 -39 -29 -30 -33 -39 -21 -18 -26
-65 -68 -69 -76 -65 -70 -61 -31 -21 -28 -32 -32 -32 -21 -28 -37 -45 -56 -52 -68 -64 -47 -50 -58 -45 -41 -53 -48 -49 -51 -52 -41 -41 -46 -47 -40 -34 -30 -28 -28 -25 -26 -24
-74 -65 -54 -50 -44 -35 -40 -37 -33 -44 -36 -36 -30 -45 -52 -54 -40 -40 -51 -51 -41 -56 -49 -45 -52 -52 -47 -48 -42 -40 -33 -44 -49 -51 -53 -41 -36 -30 -27 -23 -18 -17 -18
-61 -69 -55 -52 -44 -34 -38 -29 -25 -28 -33 -41 -33 -56 -27 -59 -86 -58 -42 -39 -45 -38 -34 -38 -42 -45 -40 -51 -45 -32 -26 -27 -32 -36 -45 -45 -36 -22 -18 -14 -12 -5 -7
-48 -58 -57 -58 -48 -42 -35 -46 -40 -38 -40 -46 -35 -30 -22 -82 -77 -98 -70 -57 -39 -50 -44 -41 -37 -43 -46 -51 -48 -40 -24 -27 -27 -22 -23 -24 -20 -22 -41 -44 -36 -26 -15
-46 -43 -46 -51 -45 -45 -36 -38 -40 -41 -47 -33 -37 -38 -50 -46 -39 -57 -76 -67 -78 -68 -95 -68 -70 -76 -85 -85 -62 -48 -36 -22 -21 -16 -19 -17 -27 -49 -79 -96 -94 -51 -32
-52 -42 -45 -43 -46 -36 -41 -38 -44 -41 -36 -36 -36 -45 -39 -40 -34 -16 -72 -66 -85 -85 -95 -84 -109 -116 -106 -134 -91 -41 -32 -30 -21 -21 -25 -27 -49 -104 -0 -7 -84 -67 -39
-75 -70 -66 -53 -69 -62 -41 -33 -28 -26 -33 -38 -38 -51 -57 -47 -54 -59 -68 -86 -48 -71 -61 -79 -88 -93 -69 -83 -71 -41 -25 -24 -27 -40 -45 -54 -0 -0 -0 -0 -57 -75 -25
-78 -58 -58 -57 -59 -66 -48 -39 -38 -32 -44 -46 -65 -67 -51 -44 -41 -36 -38 -56 -45 -75 -58 -57 -61 -71 -75 -75 -40 -15 -12 -39 -49 -61 -58 -83 -26 -0 -0 -0 -19 -92 -41
-50 -46 -49 -47 -60 -47 -36 -37 -44 -47 -45 -48 -28 -23 -28 -24 -22 -16 -9 -18 -35 -46 -50 -26 -45 -46 -55 -63 -63 -37 -17 -53 -71 -68 -15 -0 -0 -0 -0 -0 -0 -0 -45
-37 -48 -47 -45 -61 -51 -51 -44 -53 -42 -32 -30 -23 -30 -47 -35 -35 -23 -24 -29 -34 -36 -47 -34 -20 -40 -43 -60 -48 -84 -45 -37 -45 -48 -0 -0 -0 -0 -0 -0 -0 -103 -70
-35 -43 -52 -47 -59 -54 -39 -32 -29 -35 -34 -58 -33 -34 -61 -64 -48 -41 -25 -27 -40 -18 -26 -0 -25 -27 -36 -41 -41 -56 -35 -25 -27 -50 -7 -0 -0 -0 -0 -0 -16 -95 -75
-46 -46 -61 -32 -35 -56 -40 -33 -34 -36 -69 -44 -35 -50 -68 -81 -99 -98 -73 -95 -122 -140 -102 -53 -32 -24 -20 -20 -23 -23 -24 -19 -8 -0 -0 -0 -0 -0 -0 -0 -89 -84 -70
-104 -61 -32 -42 -29 -35 -35 -28 -25 -67 -49 -93 -76 -20 -45 -31 -64 -97 -71 -73 -142 -183 -148 -136 -91 -41 -16 -20 -26 -28 -2 -0 -0 -0 -0 -0 -0 -0 -0 -0 -117 -74 -71
-132 -92 -99 -49 -23 -31 -35 -55 -23 -32 -58 -54 -43 -72 -94 -59 -39 -91 -120 -104 -89 -128 -171 -164 -126 -48 -33 -38 -43 -40 -3 -5 -0 -0 -0 -0 -0 -0 -0 -0 -44 -75 -43
-86 -0 -93 -61 -19 -29 -39 -41 -28 -36 -77 -93 -47 -74 -53 -61 -37 -39 -64 -84 -101 -76 -58 -73 -67 -48 -68 -110 -106 -0 -0 -0 -4 -5 -0 -0 -0 -0 -0 -0 -0 -53 -38
-0 -0 -118 -52 -38 -22 -28 -29 -30 -30 -76 -128 -68 -63 -71 -46 -35 -27 -42 -54 -60 -79 -69 -64 -65 -65 -79 -0 -0 -0 -0 -0 -2 -5 -15 -0 -0 -0 -0 -0 -0 -0 -1
-0 -0 -35 -47 -12 -8 -16 -19 -22 -26 -27 -69 -82 -78 -62 -48 -54 -28 -33 -35 -43 -58 -81 -66 -0 -81 -0 -0 -0 -0 -0 -0 -0 -0 -1 -0 -0 -0 -0 -0 -0 -0 -0
-0 -48 -68 -63 -20 -15 -20 -31 -29 -23 -28 -29 -36 -71 -50 -51 -84 -58 -32 -33 -38 -38 -43 -32 -16 -23 -92 -91 -0 -0 -0 -0 -0 -0 -0 -1 -0 -0 -0 -0 -0 -0 -0
-4 -27 -40 -38 -30 -26 -43 -44 -53 -39 -29 -29 -30 -35 -40 -40 -49 -54 -53 -49 -43 -47 -48 -50 -64 -89 -81 -5 -0 -0 -0 -0 -0 -0 -0 -3 -0 -0 -0 -0 -0 -0 -0
-22 -68 -39 -42 -38 -54 -36 -42 -63 -61 -56 -37 -49 -69 -34 -24 -23 -39 -34 -37 -53 -70 -110 -114 -117 -87 -30 -74 -0 -0 -0 -0 -11 -0 -0 -0 -0 -0 -0 -0 -0 -0 -0
-57 -77 -83 -60 -52 -63 -65 -67 -77 -74 -71 -57 -71 -71 -108 -90 -67 -61 -56 -40 -28 -51 -65 -104 -9 -0 -0 -0 -0 -114 -0 -0 -0 -0 -0 -0 -0 -0 -0 -0 -0 -0 -0
Wind_Speed
7 6 3 3 1 5 4 4 2 4 16 22 22 22 21 19 15 8 3 14 12 22 20 17 15 15 15 14 13 12 11 12 11 11 10 11 10 9 9 8 8 8 6
13 6 3 7 8 2 3 6 8 5 29 25 27 27 19 16 11 7 4 5 12 18 20 17 13 13 13 13 12 11 10 10 10 9 9 9 9 10 9 7 8 6 6
14 14 10 9 14 10 1 1 1 6 19 23 30 29 24 14 14 8 3 3 6 15 17 18 14 11 11 10 10 10 9 8 8 8 8 8 8 9 9 8 7 6 6
18 18 17 12 11 11 5 5 9 9 25 21 21 26 30 13 14 10 7 7 7 7 15 17 15 12 9 9 9 9 7 6 7 6 7 7 6 7 8 7 7 8 7
19 17 19 17 10 13 10 9 11 11 4 22 10 15 13 16 24 16 8 8 3 4 3 8 15 14 10 7 9 8 6 4 5 6 7 7 6 7 6 5 6 7 9
20 17 18 13 10 5 6 16 11 10 11 11 12 18 21 24 28 31 28 12 6 6 5 6 4 7 13 7 8 7 5 4 5 5 6 7 7 7 7 6 6 7 7
21 20 17 16 6 6 6 8 5 7 12 13 17 22 25 24 27 28 29 35 29 14 7 6 6 7 5 10 7 6 6 6 6 4 7 8 8 8 9 8 7 8 9
21 21 20 18 15 14 12 7 12 17 18 14 18 20 25 26 25 25 23 22 23 25 24 13 11 10 10 9 6 6 6 7 7 9 8 6 6 8 5 7 7 6 8
23 23 20 20 18 12 9 9 10 13 16 17 16 18 21 24 23 23 25 26 26 24 22 24 20 17 17 13 10 9 5 6 6 10 9 4 6 9 11 8 7 4 4
22 21 21 18 18 16 11 9 8 9 12 16 20 19 21 19 22 25 23 22 23 26 23 21 21 23 25 25 15 10 7 7 6 6 5 6 10 13 12 11 10 12 9
21 21 21 18 19 15 14 13 9 9 8 10 15 19 23 25 24 26 32 31 27 26 24 23 25 27 26 32 23 14 11 9 8 7 8 10 13 14 16 19 19 18 11
18 18 17 18 18 15 14 11 11 11 11 9 13 19 17 23 23 24 31 30 32 31 25 23 23 27 26 28 31 17 13 11 10 11 12 12 14 16 15 17 20 18 15
14 19 15 15 18 17 13 11 10 9 10 9 9 8 12 17 22 18 27 30 29 27 27 26 25 23 21 24 25 20 15 12 12 15 12 15 15 18 20 23 22 22 18
8 12 15 12 14 16 15 11 9 9 10 12 8 7 14 15 18 14 19 30 32 29 28 28 22 20 19 21 22 26 24 17 14 13 14 16 18 18 17 21 21 21 18
8 7 10 14 11 12 12 11 11 10 10 10 10 11 5 6 7 6 7 14 24 29 32 27 22 18 18 22 22 24 26 17 15 14 15 16 17 20 20 20 23 20 15
11 9 8 9 10 10 10 10 9 7 10 11 12 12 14 11 8 4 1 1 11 22 28 21 17 17 17 18 23 16 16 14 12 13 14 16 16 19 21 22 21 19 15
17 13 12 10 9 9 9 7 9 8 8 9 10 12 14 12 8 7 5 3 2 4 17 17 17 19 16 17 16 16 15 12 12 13 13 14 16 16 18 19 19 18 15
21 22 18 18 13 9 8 6 9 7 4 9 11 7 11 12 12 5 3 3 3 5 3 14 13 19 14 16 13 12 11 11 10 10 12 13 14 15 17 18 17 15 12
21 23 22 27 17 12 7 7 7 6 3 3 7 7 5 2 12 7 5 4 4 4 7 4 17 14 13 11 14 14 10 9 10 10 10 12 12 13 14 15 15 13 10
22 21 34 30 29 18 11 8 8 7 5 5 3 5 5 2 1 10 5 6 3 2 2 3 5 2 10 11 7 9 11 12 10 10 11 12 12 13 14 14 13 11 7
15 20 37 30 29 20 17 12 12 12 8 7 8 4 3 2 3 2 1 3 1 3 5 6 8 9 9 10 6 10 9 12 12 13 14 14 13 13 12 11 10 8 6
8 13 26 25 21 21 21 19 19 17 17 11 9 9 10 9 9 6 4 10 3 5 4 6 9 9 7 9 11 10 10 12 16 13 12 14 12 10 9 9 9 6 3
15 15 33 17 16 28 28 26 26 22 21 18 11 11 11 15 9 11 5 15 9 5 7 7 11 7 8 9 9 8 6 8 11 14 10 13 12 12 13 14 12 8 2
11 10 10 10 8 20 31 33 28 27 25 26 22 16 13 17 17 15 14 14 6 6 5 5 6 6 8 15 7 6 5 5 13 12 10 13 13 12 13 13 12 8 4
11 16 12 4 9 14 23 28 28 29 33 32 28 26 21 25 25 25 25 23 8 6 9 7 6 4 8 15 11 9 11 11 15 14 6 10 11 10 10 9 10 7 4
13 14 16 11 16 18 22 18 18 16 28 23 28 26 28 30 32 30 23 25 26 18 15 15 16 17 15 15 9 9 10 12 15 15 9 6 9 11 14 10 6 7 7
Wind_Direction
112 115 270 272 270 275 121 119 123 278 259 248 250 247 255 270 279 322 34 131 128 167 160 146 136 141 141 142 142 139 135 139 134 131 132 141 136 129 130 116 124 120 100
134 119 132 263 266 261 128 132 132 129 223 245 238 235 271 284 313 342 64 97 137 161 171 159 147 147 148 149 147 145 144 147 148 143 147 144 143 153 143 133 148 135 129
151 143 136 261 258 265 192 252 130 290 263 256 237 240 257 291 299 318 348 42 128 164 172 174 163 155 159 155 157 155 152 155 159 157 160 157 157 167 172 164 159 161 157
162 159 155 152 264 261 257 274 277 283 253 272 184 232 226 294 302 302 304 312 159 161 180 181 178 172 165 168 167 168 165 164 167 169 171 170 171 173 179 180 180 183 181
166 165 167 164 161 259 265 272 280 281 259 273 290 294 299 294 276 292 298 295 263 206 235 184 189 186 179 171 180 181 180 179 181 183 187 187 185 188 191 194 201 201 196
168 167 168 169 166 203 246 266 272 284 287 291 292 289 286 282 273 264 269 297 292 290 277 276 216 203 196 196 194 199 203 204 203 205 203 202 204 207 213 217 218 213 213
170 171 171 170 226 214 196 192 246 270 279 285 288 285 285 287 283 279 277 256 275 295 282 263 271 287 244 211 216 228 216 215 213 222 211 210 217 221 225 234 242 232 225
175 175 176 177 178 267 270 236 272 281 282 282 284 289 286 286 285 286 289 290 288 288 290 288 284 281 288 290 277 230 228 220 216 210 213 223 234 229 246 250 244 250 234
176 179 178 180 182 185 203 215 258 275 282 281 281 290 292 289 293 293 286 286 288 291 292 289 289 289 295 293 287 289 257 228 235 215 219 272 318 329 336 337 335 314 282
177 178 182 183 185 184 195 211 221 263 280 280 284 281 287 301 296 292 294 295 293 290 290 292 290 290 292 292 292 278 276 284 281 243 272 317 329 330 333 337 339 337 335
180 180 185 186 187 188 194 201 245 253 244 270 281 289 287 285 291 288 284 285 291 293 295 289 289 289 289 283 295 282 287 299 301 299 317 327 330 328 326 325 326 328 334
177 180 182 186 188 191 194 203 209 212 215 239 279 284 287 288 285 287 287 289 286 288 294 292 294 293 288 284 281 287 289 297 305 315 319 327 330 331 331 327 322 324 324
179 185 184 186 189 189 193 203 214 220 218 224 240 261 284 284 292 300 292 287 289 294 293 290 288 293 292 286 287 291 291 302 309 312 317 324 329 327 324 319 320 317 318
198 185 186 188 188 188 189 195 206 216 205 198 213 281 296 294 295 295 296 284 284 291 294 290 295 292 292 290 289 289 293 302 309 311 317 322 327 331 334 325 325 321 320
224 209 191 186 185 183 181 182 189 192 188 192 192 191 200 292 292 278 293 299 289 291 293 296 293 289 292 291 283 292 292 302 307 310 314 321 324 322 325 327 319 322 326
245 250 228 200 189 181 179 176 183 181 177 179 180 180 181 176 167 149 329 203 308 298 299 307 299 297 305 304 291 296 297 302 305 308 317 321 324 322 321 316 323 326 326
261 248 248 247 228 195 186 186 177 171 163 164 168 169 174 168 150 143 131 111 58 2 312 316 300 303 306 304 307 303 308 315 314 318 324 326 325 328 324 322 322 326 330
271 271 263 267 251 225 194 201 178 176 182 159 164 156 169 166 166 118 86 96 78 130 13 316 325 300 314 303 313 324 327 327 329 330 331 331 332 331 328 324 325 330 336
270 270 270 261 253 249 213 205 204 193 226 197 165 166 161 149 178 162 144 122 101 108 151 4 309 322 324 321 308 316 334 333 336 339 339 338 340 338 333 331 332 334 338
273 250 258 262 253 253 244 232 230 208 237 269 204 174 167 309 203 180 167 165 130 59 92 136 149 48 337 333 343 333 324 325 333 333 333 333 335 335 333 330 331 334 346
154 173 193 251 253 254 256 248 253 259 252 265 279 258 203 246 306 278 204 180 320 339 337 329 325 328 330 328 328 323 323 322 324 324 322 323 326 328 336 339 338 339 341
210 174 185 194 258 257 260 260 260 263 269 266 268 284 296 300 306 302 220 194 201 313 311 312 314 315 319 321 321 322 320 319 319 324 323 316 320 325 332 335 336 333 328
269 207 201 211 261 259 260 261 263 264 268 271 264 277 286 297 305 310 267 204 202 216 307 315 310 301 312 306 313 318 322 321 324 329 332 318 313 311 315 316 319 320 296
269 273 254 261 205 273 262 259 264 267 270 270 274 275 279 290 295 301 305 304 222 228 241 293 302 308 307 304 301 301 303 320 327 332 332 322 317 310 309 310 311 316 295
286 279 286 233 269 270 277 274 273 271 268 271 275 277 279 284 287 289 291 293 286 256 298 284 287 287 308 300 303 309 308 312 312 319 326 326 320 314 309 308 307 307 275
297 291 292 309 285 282 279 288 285 286 275 282 276 275 277 280 281 284 290 291 291 294 299 298 298 300 300 298 286 288 296 298 308 316 319 309 319 316 309 304 298 302 300